Regional Weather Roundup
Issued by NWS

Home | Current Version | Previous Version | Graphics & Text | Print | Product List | Glossary Off
Versions: 1 2 3 4 5 6 7 8 9 10 11 12 13 14 15 16 17 18 19 20 21 22 23 24 25 26 27 28 29 30 31 32 33 34 35 36 37 38 39 40 41 42 43 44 45 46 47 48 49 50

323
ASUS43 KOAX 071802
RWRNE

WEATHER ROUNDUP FOR NEBRASKA
NATIONAL WEATHER SERVICE OMAHA NE
1200 PM CST SUN FEB 07 2016

NOTES: SATELLITE DATA IS BEING USED TO AUGMENT CLOUD COVER ABOVE
       12000 FEET.
       "FAIR" INDICATES FEW OR NO CLOUDS BELOW 12,000 FEET WITH NO
       SIGNIFICANT WEATHER AND/OR OBSTRUCTIONS TO VISIBILITY.

  * THESE STATIONS DO NOT REPORT WEATHER SUCH AS RAIN...SNOW OR FOG.

NEZ001>004-019>022-054>056-071900-
NEBRASKA PANHANDLE

CITY           SKY/WX    TMP DP  RH WIND       PRES   REMARKS
SCOTTSBLUFF    CLOUDY    34  17  50 NW24G43   30.32R WCI  21
6HR MIN TEMP:  30; 6HR MAX TEMP:  35; 6HR PCP: TRACE;

ALLIANCE       MOSUNNY   33  17  51 MISG      30.24R
6HR MIN TEMP:  30; 6HR MAX TEMP:  33;

CHADRON        SUNNY     37  15  40 NW29G45   30.25R WCI  25
6HR MIN TEMP:  32; 6HR MAX TEMP:  37;

SIDNEY         CLOUDY    31  24  75 NW23      30.30R WCI  18
6HR MIN TEMP:  24; 6HR MAX TEMP:  32; 6HR PCP: TRACE;

$$

NEZ057>060-069>072-079>082-071900-
SOUTHWEST NEBRASKA

CITY           SKY/WX    TMP DP  RH WIND       PRES   REMARKS
NORTH PLATTE   SUNNY     38  22  52 W24G31    30.19F WCI  27
6HR MIN TEMP:  30; 6HR MAX TEMP:  38;

IMPERIAL       PTSUNNY   35  25  66 NW21G29   30.28S WCI  24
6HR MIN TEMP:  31; 6HR MAX TEMP:  35;

MCCOOK         CLOUDY    39  26  59 NW21G28   30.26R WCI  29
6HR MIN TEMP:  27; 6HR MAX TEMP:  39;

$$

NEZ005>010-023>029-035>040-094-071900-
NORTH CENTRAL NEBRASKA

CITY           SKY/WX    TMP DP  RH WIND       PRES   REMARKS
VALENTINE      CLOUDY    37  15  40 NW37G52   30.07S WCI  23
6HR MIN TEMP:  34; 6HR MAX TEMP:  39;

BROKEN BOW     MOSUNNY   41  16  36 NW29G44   30.11F
6HR MIN TEMP:  36; 6HR MAX TEMP:  41;

ORD            MOSUNNY   42  15  33 NW40G54   30.06F
6HR MIN TEMP:  34; 6HR MAX TEMP:  42;

$$

NEZ041-046>049-061>064-073>077-083>087-071900-
SOUTH CENTRAL NEBRASKA

CITY           SKY/WX    TMP DP  RH WIND       PRES   REMARKS
GRAND ISLAND   SUNNY     41  23  48 W22       30.10F
6HR MIN TEMP:  30; 6HR MAX TEMP:  41;

HASTINGS       MOSUNNY   41  24  51 NW20      30.13S
6HR MIN TEMP:  31; 6HR MAX TEMP:  41;

$$

NEZ011>018-030>034-042>045-071900-
NORTHEAST NEBRASKA

CITY           SKY/WX    TMP DP  RH WIND       PRES   REMARKS
NORFOLK        PTSUNNY   42  22  44 W30G47    29.96F
6HR MIN TEMP:  34; 6HR MAX TEMP:  42;

COLUMBUS *     SUNNY     43  21  42 W20G30    30.03F
TEKAMAH        MOSUNNY   41  27  57 W17       29.97F
6HR MIN TEMP:  36; 6HR MAX TEMP:  41;

$$

NEZ050>053-065>068-078-088>093-071900-
SOUTHEAST NEBRASKA

CITY           SKY/WX    TMP DP  RH WIND       PRES   REMARKS
LINCOLN        SUNNY     43  26  51 NW18      30.07F
6HR MIN TEMP:  34; 6HR MAX TEMP:  43;

OMAHA EPPLEY   CLOUDY    42  27  55 W18G24    30.00S
6HR MIN TEMP:  38; 6HR MAX TEMP:  42;

FALLS CITY     MOSUNNY   49  28  44 W22G32    30.05F
6HR MIN TEMP:  35; 6HR MAX TEMP:  49;

$$

NEZ044-045-051>053-067-071900-
OMAHA AREA

CITY           SKY/WX    TMP DP  RH WIND       PRES   REMARKS
OMAHA EPPLEY   CLOUDY    42  27  55 W18G24    30.00S
6HR MIN TEMP:  38; 6HR MAX TEMP:  42;

OFFUTT AFB     CLOUDY    43  28  56 W17G24    30.00S
$$




USA.gov is the U.S. government's official web portal to all federal, state and local government web resources and services.